Weather History for Falls City, NE

Change the Weather History Date:

Sunday, April 13, 2014

  Actual Average Record
Temperature  
Mean Temperature 48 °F -  
Max Temperature 64 °F 64 °F 91 °F (2006)
Min Temperature 33 °F 40 °F 17 °F (1950)
Degree Days  
Heating Degree Days 16    
Moisture  
Dew Point 47 °F    
Average Humidity 90    
Maximum Humidity 100    
Minimum Humidity 67    
Precipitation  
Precipitation 0.83 in - - ()
Sea Level Pressure  
Sea Level Pressure 29.60 in    
Wind  
Wind Speed 14 mph (North)    
Max Wind Speed 28 mph    
Max Gust Speed 39 mph    
Visibility 6 miles    
Events Rain , Snow , Thunderstorm    
Averages and records for this station are not official NWS values.
T = Trace of Precipitation, MM = Missing Value Source: NWS Daily Summary

Daily Weather History Graph

Daily Weather History Graph

Search for Another Location

Airport:

Trip Planner

Search our weather history database for the weather conditions in past years. The results will help you decide how hot, cold, wet, or windy it might be!

Date:

Astronomy

Apr. 13, 2014 Rise Set
Actual Time 6:47 AM CDT 7:58 PM CDT
Civil Twilight 6:19 AM CDT 8:26 PM CDT
Nautical Twilight 5:46 AM CDT 9:00 PM CDT
Astronomical Twilight 5:11 AM CDT 9:35 PM CDT
Moon 6:37 PM CDT (4/13) 5:46 AM CDT (4/13)
Length of Visible Light 14h 07m
Length of Day
13h 11m
Waxing Gibbous, 97% of the Moon is Illuminated
Apr 13
Waxing Gibbous
Apr 15
Full
Apr 22
Last Quarter
Apr 29
New
May 6
First Quarter

Hourly Weather History & Observations

Time (CDT) Temp. Windchill Dew Point Humidity Pressure Visibility Wind Dir Wind Speed Gust Speed Precip Events Conditions
12:00 AM 64.9 °F - 54.0 °F 68% 29.54 in 10.0 mi South 9.2 mph - 0.00 in Rain Light Rain
12:13 AM 64.9 °F - 55.0 °F 70% 29.54 in 10.0 mi SSW 6.9 mph - 0.00 in Thunderstorm Mostly Cloudy
12:32 AM 63.0 °F - 55.9 °F 78% 29.57 in 10.0 mi SSW 11.5 mph - 0.02 in Rain , Thunderstorm Light Thunderstorms and Rain
12:53 AM 63.0 °F - 54.0 °F 72% 29.55 in 7.0 mi South 21.9 mph 32.2 mph 0.08 in Rain , Thunderstorm Thunderstorms and Rain
1:37 AM 64.9 °F - 54.0 °F 68% 29.59 in 10.0 mi South 17.3 mph - 0.06 in Thunderstorm Scattered Clouds
1:53 AM 64.0 °F - 53.1 °F 67% 29.57 in 10.0 mi South 16.1 mph - 0.06 in Thunderstorm Mostly Cloudy
2:25 AM 62.1 °F - 53.1 °F 72% 29.59 in 10.0 mi SSE 10.4 mph - N/A   Clear
2:53 AM 62.1 °F - 54.0 °F 75% 29.55 in 10.0 mi SSE 9.2 mph - N/A   Mostly Cloudy
3:53 AM 63.0 °F - 55.0 °F 75% 29.52 in 10.0 mi SSE 12.7 mph - N/A   Clear
4:53 AM 64.0 °F - 55.9 °F 75% 29.50 in 10.0 mi South 11.5 mph - N/A   Clear
5:53 AM 63.0 °F - 55.9 °F 78% 29.51 in 10.0 mi South 4.6 mph - N/A   Overcast
6:53 AM 62.1 °F - 57.0 °F 84% 29.52 in 10.0 mi NNW 6.9 mph - 0.00 in Rain Light Rain
7:08 AM 60.1 °F - 55.9 °F 86% 29.54 in 10.0 mi North 8.1 mph - 0.00 in Rain , Thunderstorm Light Rain
7:40 AM 59.0 °F - 55.9 °F 90% 29.54 in 7.0 mi NNW 8.1 mph - 0.00 in Rain , Thunderstorm Light Rain
7:53 AM 57.9 °F - 55.9 °F 93% 29.52 in 5.0 mi North 6.9 mph - 0.00 in   Overcast
8:53 AM 57.9 °F - 55.0 °F 90% 29.52 in 4.0 mi North 9.2 mph - N/A   Overcast
9:16 AM 57.0 °F - 55.0 °F 93% 29.54 in 4.0 mi NNW 8.1 mph - N/A Thunderstorm Overcast
9:30 AM 57.0 °F - 55.0 °F 93% 29.54 in 3.0 mi NNW 10.4 mph - N/A Thunderstorm Overcast
9:37 AM 55.9 °F - 54.0 °F 93% 29.55 in 3.0 mi NNW 10.4 mph - N/A Thunderstorm Overcast
9:53 AM 55.0 °F - 53.1 °F 93% 29.54 in 3.0 mi NW 12.7 mph - N/A Thunderstorm Overcast
10:23 AM 53.1 °F - 51.1 °F 93% 29.53 in 5.0 mi NNE 13.8 mph 24.2 mph N/A   Overcast
10:31 AM 53.1 °F - 51.1 °F 93% 29.52 in 5.0 mi NE 12.7 mph 21.9 mph N/A   Overcast
10:50 AM 53.6 °F - 51.8 °F 94% 29.56 in 7.0 mi North 20.7 mph 27.6 mph N/A   Overcast
10:53 AM 52.0 °F - 50.0 °F 93% 29.55 in 7.0 mi North 21.9 mph 29.9 mph N/A   Overcast
11:53 AM 48.9 °F - 46.9 °F 93% 29.55 in 10.0 mi North 19.6 mph 28.8 mph 0.00 in Rain Light Rain
12:53 PM 48.0 °F - 46.0 °F 93% 29.53 in 10.0 mi North 15.0 mph 28.8 mph 0.00 in   Overcast
1:53 PM 48.0 °F - 45.0 °F 89% 29.52 in 10.0 mi North 17.3 mph 33.4 mph N/A   Overcast
2:22 PM 46.9 °F - 45.0 °F 93% 29.55 in 9.0 mi North 13.8 mph 29.9 mph 0.01 in Rain , Thunderstorm Light Thunderstorms and Rain
2:32 PM 46.0 °F 38.8 °F 45.0 °F 96% 29.59 in 1.8 mi NNW 18.4 mph 25.3 mph 0.25 in Rain , Thunderstorm Heavy Thunderstorms and Rain
2:46 PM 46.4 °F 39.0 °F 46.4 °F 100% 29.56 in 3.0 mi North 19.6 mph 32.2 mph N/A Rain , Thunderstorm Heavy Thunderstorms and Rain
2:53 PM 46.0 °F 38.0 °F 46.0 °F 100% 29.55 in 4.0 mi North 21.9 mph 32.2 mph 0.42 in Rain , Thunderstorm Heavy Rain
3:37 PM 46.0 °F 38.3 °F 46.0 °F 100% 29.56 in 5.0 mi North 20.7 mph 31.1 mph 0.11 in Rain , Thunderstorm Heavy Rain
3:48 PM 44.6 °F 35.1 °F - N/A% 29.52 in 10.0 mi NNE 27.6 mph 36.8 mph 0.13 in Rain , Thunderstorm Thunderstorms and Rain
3:53 PM 45.0 °F 36.9 °F - N/A% 29.52 in 9.0 mi North 20.7 mph 36.8 mph 0.14 in Rain , Thunderstorm Thunderstorms and Rain
4:04 PM 44.1 °F 35.0 °F - N/A% 29.57 in 10.0 mi North 24.2 mph 34.5 mph 0.01 in Rain , Thunderstorm Light Rain
4:15 PM 43.0 °F 33.3 °F - N/A% 29.54 in 10.0 mi North 25.3 mph 36.8 mph 0.02 in Rain , Thunderstorm Light Thunderstorms and Rain
4:34 PM 43.0 °F 33.3 °F - N/A% 29.58 in 10.0 mi North 25.3 mph 39.1 mph 0.04 in Rain Light Rain
4:53 PM 43.0 °F 34.0 °F - N/A% 29.56 in 10.0 mi North 21.9 mph 35.7 mph 0.05 in Rain Light Rain
5:53 PM 41.0 °F 30.2 °F 37.0 °F 86% 29.61 in 10.0 mi NNW 27.6 mph 35.7 mph 0.00 in   Overcast
6:53 PM 37.4 °F 27.2 °F 35.6 °F 93% 29.65 in 4.0 mi North 19.6 mph 35.7 mph N/A Snow Light Snow
7:07 PM 37.0 °F 26.7 °F 35.1 °F 93% 29.66 in 2.5 mi North 19.6 mph 38.0 mph 0.00 in Snow Light Snow
7:44 PM 37.0 °F 27.4 °F 37.0 °F 100% 29.70 in 3.0 mi NNW 17.3 mph 36.8 mph 0.01 in Snow Light Snow
7:48 PM 37.4 °F 26.6 °F 37.4 °F 100% 29.71 in 3.0 mi North 21.9 mph 31.1 mph 0.01 in Snow Light Snow
7:53 PM 37.0 °F 27.4 °F 37.0 °F 100% 29.72 in 2.5 mi North 17.3 mph 29.9 mph 0.01 in Snow Light Snow
7:55 PM 37.0 °F 27.7 °F 37.0 °F 100% 29.71 in 3.0 mi NNW 16.1 mph 29.9 mph 0.00 in Snow Light Snow
8:27 PM 36.0 °F 25.3 °F 36.0 °F 100% 29.73 in 3.0 mi North 19.6 mph 29.9 mph 0.01 in Snow Light Snow
8:53 PM 36.0 °F 27.5 °F 36.0 °F 100% 29.75 in 3.0 mi NNW 12.7 mph 24.2 mph 0.02 in Snow Light Snow
9:53 PM 35.1 °F 23.8 °F 35.1 °F 100% 29.81 in 3.0 mi NNW 20.7 mph 27.6 mph 0.03 in Snow Light Snow
10:53 PM 33.1 °F 20.9 °F 33.1 °F 100% 29.85 in 3.0 mi NNW 21.9 mph 35.7 mph 0.02 in Snow Light Snow
11:02 PM 33.1 °F 20.6 °F 33.1 °F 100% 29.84 in 2.5 mi NNW 23.0 mph 33.4 mph 0.00 in Snow Light Snow
11:12 PM 33.1 °F 20.9 °F 33.1 °F 100% 29.84 in 2.5 mi NNW 21.9 mph 35.7 mph 0.00 in Snow Light Snow
11:38 PM 33.1 °F 20.3 °F 33.1 °F 100% 29.84 in 4.0 mi NNW 24.2 mph 34.5 mph 0.00 in Snow Light Snow
11:53 PM 33.1 °F 20.9 °F 33.1 °F 100% 29.86 in 6.0 mi NNW 21.9 mph 34.5 mph 0.00 in Snow Light Snow